Tracking 19709 objects as of 19-Jun-2019
HD Live streaming from Space Station
objects crossing your sky now

SL-14 DEB

Track SL-14 DEB now!
10-day predictions


NORAD ID: 39972
Int'l Code: 1987-068CY
Perigee: 927.2 km
Apogee: 958.8 km
Inclination: 82.5 °
Period: 103.8 minutes
Semi major axis: 7314 km
RCS: 0.0139 m2 (small)
Launch date: August 18, 1987
Source: Commonwealth of Independent States (former USSR) (CIS)
Launch site: PLESETSK MISSILE AND SPACE COMPLEX (PKMTR)

Note: This is SATELLITE DEBRIS
aabbcc
Your satellite tracking list
Your tracking list is empty




NASA's NSSDC Master Catalog

Two Line Element Set (TLE):
1 39972U 87068CY  19167.55386210  .00000158  00000-0  11959-3 0  9995
2 39972  82.4939 103.6125 0021575  85.2182 275.1444 13.87937555821653
Source of the keplerian elements: AFSPC